Powrót do katalogu

STARLINK-5118

AktywnyŁącznośćVLEO
NORAD 53991·PAYLOAD·🇺🇸 United States

Wystrzelony Oct 5, 2022 z Vandenberg Space Force Base

Loading…

Następne Przeloty (najbliższe 24 godziny)

TLE

ŚwieżeSource: CelesTrak SupGP

Epoka: Sep 14, 2026, 22:28 UTC

1 53991C 22125AD  26257.93659722  .00039552  00000+0  11318-2 0  2570
2 53991  53.1610  63.8925 0001200  78.7530 334.7539 15.35374857    14

Śledź STARLINK-5118 w czasie rzeczywistym z AllMySat

Download on the App Store